Location: Carri�res
(48.9069°N, 2.1792°E)
Time: 18:25:37
(UTC+00:00)

X-37B - Pass Details

Date: 09 December 2021
Orbit: 334 x 337 km, 45.0° (Epoch: 11 January)

Event Time Altitude Azimuth Distance (km) Brightness Sun altitude
Rises 17:52:59 0° 236° (WSW) 2,099 5.6 -18.5°
Reaches altitude 10° 17:55:09 10° 223° (SW) 1,264 4.0 -18.8°
Enters shadow 17:57:14 25° 178° (S) 731 2.0 -19.2°
